Terminal Aerodrome Forecast
Issued by NWS

Home | Current Version | Previous Version | Text Only | Print | Product List | Glossary On
Versions: 1 2 3 4 5 6 7 8 9 10 11 12 13 14 15 16 17 18 19 20 21 22 23 24 25 26 27 28 29 30
000
FTUS45 KBOU 200057 AAA
TAFBJC
TAF AMD
KBJC 200057Z 2001/2024 29010KT P6SM BKN150 BKN200
      TEMPO 2001/2004 29012G22KT
     FM200400 26018G28KT P6SM FEW130 BKN220
     FM201200 27020G30KT P6SM FEW130 SCT220
     FM202000 29025G35KT P6SM FEW130 SCT220=

USA.gov is the U.S. government's official web portal to all federal, state and local government web resources and services.